Caro, MI

4:11 PM EST on February 20, 2017 (GMT -0500)
Caro

Weather History for KCFS - January, 2012

Change the Weather History Date:

Friday, January 13, 2012

  Actual Average (KMBS) Record (KMBS)
Temperature  
Mean Temperature 26 °F -  
Max Temperature 32 °F 25 °F 50 °F (2005)
Min Temperature 19 °F 12 °F -4 °F (2009)
Degree Days  
Heating Degree Days 40    
Moisture  
Dew Point 20 °F    
Average Humidity 88    
Maximum Humidity 100    
Minimum Humidity 74    
Precipitation  
Precipitation 0.00 in - - ()
Sea Level Pressure  
Sea Level Pressure 29.55 in    
Wind  
Wind Speed 8 mph (WNW)    
Max Wind Speed 18 mph    
Max Gust Speed 21 mph    
Visibility 4 miles    
Events Snow    
Averages and records for this station are not official NWS values.
T = Trace of Precipitation, MM = Missing Value Source: NWS Daily Summary

Daily Weather History Graph

Daily Weather History Graph

Search for Another Location

Airport or City:

Trip Planner

Search our weather history database for the weather conditions in past years. The results will help you decide how hot, cold, wet, or windy it might be!

Date:

Astronomy

Jan. 13, 2012 Rise Set
Actual Time 8:04 AM EST 5:20 PM EST
Civil Twilight 7:32 AM EST 5:52 PM EST
Nautical Twilight 6:57 AM EST 6:27 PM EST
Astronomical Twilight 6:23 AM EST 7:02 PM EST
Moon 10:43 PM EST (1/13) 10:08 AM EST (1/13)
Length of Visible Light 10h 19m
Length of Day
9h 15m
Waning Gibbous, 79% of the Moon is Illuminated
Jan 13
Waning Gibbous
Jan 16
Last Quarter
Jan 23
New
Jan 30
First Quarter
Feb 7
Full

Hourly Weather History & Observations

Time (EST) Temp. Windchill Dew Point Humidity Pressure Visibility Wind Dir Wind Speed Gust Speed Precip Events Conditions
12:15 AM 32.0 °F 28.7 °F 32.0 °F 100% 29.29 in 1.5 mi NW 3.5 mph - N/A Snow Light Snow
12:35 AM 32.0 °F 28.7 °F 32.0 °F 100% 29.29 in 1.8 mi NNW 3.5 mph - N/A Snow Light Snow
12:55 AM 32.0 °F 27.5 °F 32.0 °F 100% 29.29 in 2.5 mi NNW 4.6 mph - N/A Snow Light Snow
1:14 AM 32.0 °F - 32.0 °F 100% 29.29 in 3.0 mi Calm Calm - N/A Snow Light Snow
1:35 AM 32.0 °F 23.6 °F 32.0 °F 100% 29.29 in 1.5 mi SW 10.4 mph - N/A Snow Light Snow
1:55 AM 30.2 °F 20.2 °F 28.4 °F 93% 29.30 in 1.2 mi SW 12.7 mph 18.4 mph N/A Snow Light Snow
2:14 AM 28.4 °F 15.8 °F 26.6 °F 93% 29.31 in 1.5 mi SW 18.4 mph - N/A Snow Light Snow
2:35 AM 26.6 °F 15.7 °F 26.6 °F 100% 29.32 in 1.5 mi SW 12.7 mph - N/A Snow Light Snow
2:54 AM 26.6 °F 15.7 °F 24.8 °F 93% 29.32 in 3.0 mi SW 12.7 mph - N/A Snow Light Snow
3:15 AM 26.6 °F 16.2 °F 24.8 °F 93% 29.32 in 3.0 mi WSW 11.5 mph 17.3 mph N/A Snow Light Snow
3:35 AM 26.6 °F 16.2 °F 23.0 °F 86% 29.32 in 7.0 mi WSW 11.5 mph 18.4 mph N/A   Overcast
4:15 AM 24.8 °F 14.0 °F 23.0 °F 93% 29.34 in 7.0 mi SW 11.5 mph - N/A   Overcast
4:35 AM 23.0 °F 11.1 °F 21.2 °F 93% 29.34 in 7.0 mi SW 12.7 mph 16.1 mph N/A   Overcast
4:55 AM 23.0 °F 13.1 °F 21.2 °F 93% 29.35 in 10.0 mi SSW 9.2 mph - N/A   Overcast
5:15 AM 23.0 °F 13.1 °F 21.2 °F 93% 29.35 in 10.0 mi SW 9.2 mph - N/A   Overcast
5:34 AM 23.0 °F 14.7 °F 21.2 °F 93% 29.35 in 10.0 mi WSW 6.9 mph - N/A   Overcast
5:55 AM 23.0 °F 13.1 °F 21.2 °F 93% 29.35 in 10.0 mi SW 9.2 mph - N/A   Overcast
6:15 AM 23.0 °F 15.8 °F 21.2 °F 93% 29.36 in 5.0 mi WSW 5.8 mph - N/A   Overcast
6:35 AM 23.0 °F 15.8 °F 21.2 °F 93% 29.37 in 5.0 mi SW 5.8 mph - N/A   Overcast
6:55 AM 23.0 °F 14.7 °F 21.2 °F 93% 29.38 in 5.0 mi SW 6.9 mph - N/A Snow Light Snow
7:14 AM 23.0 °F 14.7 °F 21.2 °F 93% 29.39 in 4.0 mi SW 6.9 mph - N/A Snow Light Snow
7:55 AM 23.0 °F 17.0 °F 21.2 °F 93% 29.40 in 5.0 mi WSW 4.6 mph - N/A Snow Light Snow
8:15 AM 23.0 °F 18.4 °F 21.2 °F 93% 29.42 in 5.0 mi West 3.5 mph - N/A Snow Light Snow
8:35 AM 23.0 °F 15.8 °F 21.2 °F 93% 29.43 in 2.5 mi West 5.8 mph - N/A Snow Light Snow
8:55 AM 24.8 °F 19.1 °F 23.0 °F 93% 29.44 in 1.5 mi West 4.6 mph - N/A Snow Light Snow
9:14 AM 26.6 °F 18.2 °F 23.0 °F 86% 29.45 in 2.0 mi NNW 8.1 mph - N/A Snow Light Snow
9:35 AM 26.6 °F 15.7 °F 23.0 °F 86% 29.46 in 1.8 mi NW 12.7 mph - N/A Snow Light Snow
9:55 AM 24.8 °F 14.0 °F 23.0 °F 93% 29.48 in 1.2 mi NNW 11.5 mph 18.4 mph N/A Snow Light Snow
10:14 AM 24.8 °F 12.4 °F 21.2 °F 86% 29.49 in 1.2 mi NNW 15.0 mph - N/A Snow Light Snow
10:35 AM 23.0 °F 12.4 °F 21.2 °F 93% 29.51 in 1.2 mi NNW 10.4 mph 16.1 mph N/A Snow Light Snow
10:55 AM 23.0 °F 11.7 °F 21.2 °F 93% 29.53 in 0.8 mi NNW 11.5 mph - N/A Snow Light Snow
11:14 AM 23.0 °F 10.6 °F 19.4 °F 86% 29.53 in 1.8 mi NNW 13.8 mph 20.7 mph N/A Snow Light Snow
11:35 AM 23.0 °F 12.4 °F 19.4 °F 86% 29.54 in 1.0 mi NNW 10.4 mph 18.4 mph N/A Snow Light Snow
11:55 AM 23.0 °F 11.1 °F 19.4 °F 86% 29.55 in 1.5 mi NW 12.7 mph - N/A Snow Light Snow
12:15 PM 23.0 °F 10.1 °F 19.4 °F 86% 29.56 in 1.8 mi NW 15.0 mph 19.6 mph N/A Snow Light Snow
12:35 PM 23.0 °F 10.6 °F 17.6 °F 80% 29.57 in 2.0 mi NW 13.8 mph - N/A Snow Light Snow
12:55 PM 23.0 °F 12.4 °F 19.4 °F 86% 29.58 in 0.8 mi NW 10.4 mph - N/A Snow Light Snow
1:15 PM 21.2 °F 8.3 °F 17.6 °F 86% 29.59 in 1.8 mi WNW 13.8 mph 18.4 mph N/A Snow Light Snow
1:35 PM 21.2 °F 10.1 °F 17.6 °F 86% 29.60 in 1.5 mi WNW 10.4 mph 18.4 mph N/A Snow Light Snow
2:15 PM 21.2 °F 8.9 °F 14.0 °F 74% 29.62 in 10.0 mi NW 12.7 mph - N/A   Overcast
2:35 PM 21.2 °F 9.5 °F 15.8 °F 80% 29.63 in 4.0 mi NW 11.5 mph - N/A Snow Light Snow
2:55 PM 21.2 °F 11.7 °F 17.6 °F 86% 29.65 in 2.0 mi NW 8.1 mph - N/A Snow Light Snow
3:15 PM 21.2 °F 10.1 °F 17.6 °F 86% 29.67 in 0.8 mi WNW 10.4 mph - N/A Snow Light Snow
3:35 PM 21.2 °F 10.1 °F 17.6 °F 86% 29.68 in 1.2 mi West 10.4 mph - N/A Snow Light Snow
3:55 PM 21.2 °F 9.5 °F 17.6 °F 86% 29.70 in 0.5 mi NW 11.5 mph - N/A Snow Light Snow
4:15 PM 21.2 °F 12.6 °F 17.6 °F 86% 29.71 in 1.2 mi WNW 6.9 mph - N/A Snow Light Snow
4:34 PM 21.2 °F 8.9 °F 15.8 °F 80% 29.73 in 2.0 mi WNW 12.7 mph 20.7 mph N/A Snow Light Snow
4:55 PM 21.2 °F 9.5 °F 15.8 °F 80% 29.75 in 2.5 mi WNW 11.5 mph - N/A Snow Light Snow
5:15 PM 19.4 °F 9.5 °F 15.8 °F 86% 29.76 in 7.0 mi WNW 8.1 mph - N/A Snow Light Snow
5:35 PM 21.2 °F 11.7 °F 15.8 °F 80% 29.77 in 5.0 mi NW 8.1 mph - N/A Snow Light Snow
5:55 PM 21.2 °F 12.6 °F 15.8 °F 80% 29.79 in 5.0 mi WNW 6.9 mph - N/A Snow Light Snow
6:15 PM 21.2 °F 13.6 °F 17.6 °F 86% 29.80 in 4.0 mi West 5.8 mph - N/A Snow Light Snow
6:35 PM 21.2 °F 14.9 °F 17.6 °F 86% 29.81 in 4.0 mi WNW 4.6 mph - N/A Snow Light Snow
6:55 PM 21.2 °F 13.6 °F 17.6 °F 86% 29.82 in 5.0 mi WNW 5.8 mph - N/A Snow Light Snow
7:14 PM 21.2 °F 11.7 °F 17.6 °F 86% 29.83 in 4.0 mi WNW 8.1 mph - N/A Snow Light Snow
7:35 PM 21.2 °F 11.7 °F 17.6 °F 86% 29.84 in 3.0 mi NNW 8.1 mph - N/A Snow Light Snow
7:55 PM 21.2 °F 11.7 °F 15.8 °F 80% 29.85 in 5.0 mi NNW 8.1 mph - N/A Snow Light Snow
8:14 PM 19.4 °F 8.6 °F 15.8 °F 86% 29.85 in 5.0 mi NNW 9.2 mph - N/A Snow Light Snow
8:35 PM 21.2 °F 10.1 °F 14.0 °F 74% 29.87 in 10.0 mi NW 10.4 mph - N/A   Overcast
8:54 PM 19.4 °F 11.5 °F 14.0 °F 80% 29.87 in 10.0 mi North 5.8 mph - N/A   Overcast
9:15 PM 19.4 °F 9.5 °F 14.0 °F 80% 29.88 in 10.0 mi NNW 8.1 mph - N/A Snow Light Snow
9:35 PM 19.4 °F 10.4 °F 14.0 °F 80% 29.88 in 10.0 mi North 6.9 mph - N/A Snow Light Snow
9:54 PM 19.4 °F 11.5 °F 14.0 °F 80% 29.88 in 7.0 mi NNW 5.8 mph - N/A Snow Light Snow
10:15 PM 19.4 °F 12.8 °F 14.0 °F 80% 29.89 in 5.0 mi NNW 4.6 mph - N/A Snow Light Snow
10:35 PM 19.4 °F 12.8 °F 14.0 °F 80% 29.90 in 4.0 mi NNW 4.6 mph - N/A Snow Light Snow
10:54 PM 19.4 °F 12.8 °F 14.0 °F 80% 29.90 in 4.0 mi NNW 4.6 mph - N/A Snow Light Snow
11:15 PM 19.4 °F 14.3 °F 14.0 °F 80% 29.91 in 4.0 mi NNW 3.5 mph - N/A Snow Light Snow
11:35 PM 21.2 °F - 15.8 °F 80% 29.91 in 2.5 mi Calm Calm - N/A Snow Light Snow
11:55 PM 19.4 °F - 17.6 °F 93% 29.91 in 3.0 mi Calm Calm - N/A Snow Light Snow